ARIANE 2 DEB, 27039

Orbit data source: Space-Track

ARIANE 2 DEB, 27039 is space debris in HEO originally from a launch on Fri, 27 Jan 1989 UTC launched from the French Guiana (FRGUI). Debris objects in space refer to the collection of defunct objects orbiting the Earth. Examples of debris include non-operational satellites, rocket bodies, and fragments generated from explosions, collisions, or faulty payload assembly.

Loading next visibility...
Identifier
27039, 1989-006U
Orbit
HEO
Country
Flag of FRFR
Related business
Manufacturer
EADS/LV
Mission
Spacecraft
Bus & Motor
Unknown
Mass
Unknown
Launch date (UTC)
1989-01-27 (37 years ago)
Launch vehicle
Unknown
Launch site
French Guiana (FRGUI)
Object type
Payload
Rocket body
Debris
Shape & HBR
Unknown shape, 0.6 m
Radar Cross Section
Medium (>0.1 m² and <1 m²)

Expand to show TLE details & history
Last TLE update: 13 hours ago

TLE from 13 hours ago
0 ARIANE 2 DEB
1 27039U 89006U   26061.75325471 -.00000032  00000-0  18504-2 0  9999
2 27039   7.8219 199.4758 7153592 196.3535  65.4718  2.26227007203742
Epoch: 2026-03-02T18:04Z
TLE epoch observation values (Epoch: 2026-03-02T18:04:41.206Z)
Latitude
-2.46104°
Longitude
109.54784°
Altitude
22,730.451 km
Speed
3.335 km/s
True Right ascension
12h 05m 02s
True Declination
-2° 27' 27"
Sunlit
Object was in daylight at epoch
Visualization orbit readout
Latitude
Unknown
Longitude
Unknown
Altitude
Unknown
Speed
Unknown
Apparent Right ascension
Unknown
Apparent Declination
Unknown
Sunlit
N/A
Visualization observer readout
Local Sidereal Time
10:46:55
Azimuth
Unknown
Elevation
Unknown
Doppler factor
Unknown
Orbital elements
Apogee altitude
35,676.924 km
Perigee altitude
600.335 km
Semi-major axis
24,516.767 km
Eccentricity
0.71536
Inclination
7.8219°
RAAN
199.4758°
Arg. of periapsis
196.3535°
True anomaly
145.31528°
Mean anomaly
65.4718°
Eccentric anomaly
105.05252°
Mean motion
0.56539 °/min
Orbital period
636.73 mins
BSTAR
0.0018504
Loading maneuver chart data...
Computing Atmospheric mass density...
Loading historical data...
Loading historical data...
Loading historical data...
Loading historical data...
Loading historical data...
Loading historical data...
Loading historical data...

Documentation

Showing up to 5 results
|